Weather History for KGCM - November, 2013

Change the Weather History Date:

Thursday, November 7, 2013

  Actual Average (KTUL) Record (KTUL)
Temperature  
Mean Temperature 46 °F 54 °F  
Max Temperature 62 °F 65 °F 86 °F (2005)
Min Temperature 30 °F 43 °F 22 °F (1991)
Degree Days  
Heating Degree Days 19 11  
Month to date heating degree days 71  
Since 1 July heating degree days 257  
Moisture  
Dew Point 35 °F    
Average Humidity 77    
Maximum Humidity 100    
Minimum Humidity 34    
Precipitation  
Precipitation 0.00 in 0.10 in 3.67 in (1918)
Month to date precipitation 0.77  
Year to date precipitation 36.44  
Sea Level Pressure  
Sea Level Pressure 30.42 in    
Wind  
Wind Speed 1 mph (SW)    
Max Wind Speed 6 mph    
Max Gust Speed -    
Visibility 8 miles    
Events      
T = Trace of Precipitation, MM = Missing Value Source: NWS Daily Summary

Daily Weather History Graph

Daily Weather History Graph

Search for Another Location

Airport or City:

Trip Planner

Search our weather history database for the weather conditions in past years. The results will help you decide how hot, cold, wet, or windy it might be!

Date:

Astronomy

Nov. 07, 2013 Rise Set
Actual Time 6:51 AM CST 5:19 PM CST
Civil Twilight 6:24 AM CST 5:46 PM CST
Nautical Twilight 5:53 AM CST 6:17 PM CST
Astronomical Twilight 5:23 AM CST 6:47 PM CST
Moon 10:59 AM CST (11/7) 9:33 PM CST (11/7)
Length of Visible Light 11h 22m
Length of Day
10h 28m
Waxing Crescent, 23% of the Moon is Illuminated
Nov 7
Waxing Crescent
Nov 9
First Quarter
Nov 17
Full
Nov 25
Last Quarter
Dec 2
New

Hourly Weather History & Observations

Time (CST) Temp. Windchill Dew Point Humidity Pressure Visibility Wind Dir Wind Speed Gust Speed Precip Events Conditions
12:15 AM 33.8 °F - 32.0 °F 93% 30.40 in 10.0 mi Calm Calm - N/A   Clear
12:35 AM 32.0 °F - 32.0 °F 100% 30.40 in 10.0 mi Calm Calm - N/A   Clear
12:55 AM 32.0 °F - 32.0 °F 100% 30.42 in 7.0 mi Calm Calm - N/A   Clear
1:15 AM 32.0 °F - 32.0 °F 100% 30.42 in 2.5 mi Calm Calm - N/A   Clear
1:35 AM 32.0 °F - 32.0 °F 100% 30.41 in 0.8 mi Calm Calm - N/A   Mist
1:55 AM 32.0 °F - 32.0 °F 100% 30.42 in 10.0 mi Calm Calm - N/A   Clear
2:15 AM 32.0 °F - 30.2 °F 93% 30.42 in 3.0 mi Calm Calm - N/A   Clear
2:35 AM 32.0 °F - 32.0 °F 100% 30.42 in 10.0 mi Calm Calm - N/A   Clear
2:55 AM 32.0 °F - 32.0 °F 100% 30.42 in 10.0 mi Calm Calm - N/A   Clear
3:15 AM 32.0 °F - 30.2 °F 93% 30.43 in 7.0 mi Calm Calm - N/A   Clear
3:35 AM 32.0 °F - 32.0 °F 100% 30.44 in 7.0 mi Calm Calm - N/A   Clear
3:55 AM 32.0 °F - 32.0 °F 100% 30.44 in 4.0 mi Calm Calm - N/A   Clear
4:15 AM 30.2 °F - 30.2 °F 100% 30.44 in 1.0 mi Calm Calm - N/A   Mist
4:35 AM 30.2 °F - 30.2 °F 100% 30.44 in 10.0 mi Calm Calm - N/A   Clear
4:55 AM 30.2 °F - 30.2 °F 100% 30.44 in 10.0 mi Calm Calm - N/A   Clear
5:15 AM 30.2 °F - 30.2 °F 100% 30.44 in 5.0 mi Calm Calm - N/A   Clear
5:35 AM 30.2 °F - 30.2 °F 100% 30.45 in 4.0 mi Calm Calm - N/A   Clear
5:55 AM 30.2 °F - 30.2 °F 100% 30.45 in 5.0 mi Calm Calm - N/A   Clear
6:15 AM 32.0 °F - 30.2 °F 93% 30.46 in 7.0 mi Calm Calm - N/A   Clear
6:35 AM 30.2 °F - 30.2 °F 100% 30.46 in 2.0 mi Calm Calm - N/A   Clear
6:55 AM 30.2 °F - 30.2 °F 100% 30.46 in 4.0 mi Calm Calm - N/A   Clear
7:15 AM 30.2 °F - 30.2 °F 100% 30.46 in 4.0 mi Calm Calm - N/A   Clear
7:35 AM 32.0 °F - 32.0 °F 100% 30.47 in 5.0 mi Calm Calm - N/A   Clear
7:55 AM 32.0 °F - 32.0 °F 100% 30.47 in 3.0 mi Calm Calm - N/A   Clear
8:15 AM 33.8 °F - 33.8 °F 100% 30.47 in 2.5 mi Calm Calm - N/A   Clear
8:35 AM 37.4 °F - 35.6 °F 93% 30.48 in 5.0 mi Calm Calm - N/A   Clear
8:55 AM 39.2 °F - 37.4 °F 93% 30.48 in 7.0 mi Calm Calm - N/A   Clear
9:15 AM 42.8 °F 41.1 °F 41.0 °F 93% 30.49 in 10.0 mi SSW 3.5 mph - N/A   Clear
9:35 AM 42.8 °F 39.3 °F 41.0 °F 93% 30.49 in 10.0 mi SW 5.8 mph - N/A   Clear
9:55 AM 44.6 °F 41.4 °F 39.2 °F 81% 30.49 in 10.0 mi SW 5.8 mph - N/A   Clear
10:15 AM 46.4 °F 43.5 °F 39.2 °F 76% 30.48 in 10.0 mi SW 5.8 mph - N/A   Clear
10:35 AM 46.4 °F 44.3 °F 41.0 °F 81% 30.48 in 10.0 mi SW 4.6 mph - N/A   Clear
10:55 AM 50.0 °F - 39.2 °F 66% 30.48 in 10.0 mi Calm Calm - N/A   Clear
11:15 AM 50.0 °F - 39.2 °F 66% 30.48 in 10.0 mi SW 3.5 mph - N/A   Clear
11:35 AM 51.8 °F - 41.0 °F 67% 30.47 in 10.0 mi Calm Calm - N/A   Clear
11:55 AM 53.6 °F - 39.2 °F 58% 30.47 in 10.0 mi Calm Calm - N/A   Clear
12:15 PM 53.6 °F - 41.0 °F 62% 30.45 in 10.0 mi Calm Calm - N/A   Clear
12:35 PM 55.4 °F - 37.4 °F 51% 30.45 in 10.0 mi Calm Calm - N/A   Clear
12:55 PM 57.2 °F - 37.4 °F 48% 30.44 in 10.0 mi Calm Calm - N/A   Clear
1:15 PM 59.0 °F - 37.4 °F 45% 30.43 in 10.0 mi WSW 4.6 mph - N/A   Clear
1:35 PM 59.0 °F - 35.6 °F 42% 30.42 in 10.0 mi Calm Calm - N/A   Clear
1:55 PM 60.8 °F - 35.6 °F 39% 30.41 in 10.0 mi Calm Calm - N/A   Clear
2:15 PM 60.8 °F - 35.6 °F 39% 30.40 in 10.0 mi NW 3.5 mph - N/A   Clear
2:35 PM 60.8 °F - 33.8 °F 36% 30.40 in 10.0 mi WNW 5.8 mph - N/A   Clear
2:55 PM 60.8 °F - 35.6 °F 39% 30.40 in 10.0 mi West 5.8 mph - N/A   Clear
3:15 PM 62.6 °F - 33.8 °F 34% 30.39 in 10.0 mi NW 4.6 mph - N/A   Clear
3:35 PM 60.8 °F - 33.8 °F 36% 30.39 in 10.0 mi WNW 3.5 mph - N/A   Clear
3:55 PM 60.8 °F - 33.8 °F 36% 30.39 in 10.0 mi WNW 3.5 mph - N/A   Clear
4:15 PM 60.8 °F - 33.8 °F 36% 30.39 in 10.0 mi Calm Calm - N/A   Clear
4:55 PM 60.8 °F - 33.8 °F 36% 30.39 in 10.0 mi Calm Calm - N/A   Clear
5:15 PM 59.0 °F - 35.6 °F 42% 30.38 in 10.0 mi Calm Calm - N/A   Clear
5:35 PM 53.6 °F - 35.6 °F 51% 30.39 in 10.0 mi South 4.6 mph - N/A   Clear
5:55 PM 53.6 °F - 35.6 °F 51% 30.39 in 10.0 mi South 4.6 mph - N/A   Clear
6:15 PM 51.8 °F - 33.8 °F 50% 30.40 in 10.0 mi South 4.6 mph - N/A   Clear
6:35 PM 46.4 °F 44.3 °F 35.6 °F 66% 30.40 in 10.0 mi South 4.6 mph - N/A   Clear
6:55 PM 48.2 °F - 35.6 °F 62% 30.40 in 10.0 mi SE 3.5 mph - N/A   Clear
7:15 PM 46.4 °F - 35.6 °F 66% 30.40 in 10.0 mi Calm Calm - N/A   Clear
7:35 PM 44.6 °F - 35.6 °F 71% 30.40 in 10.0 mi Calm Calm - N/A   Clear
7:55 PM 42.8 °F - 35.6 °F 76% 30.39 in 10.0 mi Calm Calm - N/A   Clear
8:15 PM 42.8 °F - 35.6 °F 76% 30.39 in 10.0 mi Calm Calm - N/A   Clear
8:35 PM 42.8 °F - 35.6 °F 76% 30.39 in 10.0 mi Calm Calm - N/A   Clear
8:55 PM 42.8 °F - 35.6 °F 76% 30.39 in 10.0 mi Calm Calm - N/A   Clear
9:15 PM 41.0 °F - 35.6 °F 81% 30.38 in 10.0 mi Calm Calm - N/A   Clear
9:35 PM 41.0 °F - 35.6 °F 81% 30.39 in 10.0 mi Calm Calm - N/A   Clear
9:55 PM 37.4 °F - 35.6 °F 93% 30.38 in 10.0 mi Calm Calm - N/A   Clear
10:15 PM 39.2 °F - 35.6 °F 87% 30.38 in 10.0 mi Calm Calm - N/A   Clear
10:35 PM 41.0 °F - 35.6 °F 81% 30.38 in 10.0 mi Calm Calm - N/A   Clear
10:55 PM 39.2 °F - 35.6 °F 87% 30.38 in 10.0 mi Calm Calm - N/A   Clear
11:15 PM 39.2 °F - 35.6 °F 87% 30.37 in 10.0 mi Calm Calm - N/A   Clear
11:35 PM 39.2 °F - 35.6 °F 87% 30.37 in 10.0 mi Calm Calm - N/A   Clear
11:55 PM 37.4 °F - 35.6 °F 93% 30.37 in 10.0 mi Calm Calm - N/A   Clear